When you browse on this site, cookies collect data to enhance your experience and personalize the content and advertising you see.
Visit our Privacy Policy to learn more. By continuing to use the site, you agree to this use of cookies and data.
  • In Österreich
  • Länderverzeichnis
  • Für 7 Tage
  • Wassertemperatur
  • Satellitenkarten
  • Wetterkarte
  • News
  • Widgets
  • user-avatar
    Anmelden

    Stündliche Wetter Salzburg

    Heute, 19 März, Dienstag

    Zeit Temperatur Niederschläge Wind Luftdruck Luftfeuchtigkeit
    00:00 -10°C° 0.1 mm 1 m/S 625 mmHg 92%
    01:00 -10°C° 0.1 mm 1 m/S 625 mmHg 92%
    02:00 -10°C° 0 mm 1 m/S 625 mmHg 92%
    03:00 -10°C° 0 mm 1 m/S 625 mmHg 93%
    04:00 -10°C° 0 mm 1 m/S 625 mmHg 93%
    05:00 -10°C° 0 mm 1 m/S 625 mmHg 93%
    06:00 -10°C° 0 mm 1 m/S 625 mmHg 92%
    07:00 -9°C° 0 mm 1 m/S 626 mmHg 92%
    08:00 -7°C° 0 mm 1 m/S 626 mmHg 91%
    09:00 -4°C° 0 mm 1 m/S 627 mmHg 89%
    10:00 -2°C° 0 mm 1 m/S 628 mmHg 87%
    11:00 -2°C° 0.1 mm 1 m/S 628 mmHg 86%
    12:00 -2°C° 0.1 mm 1 m/S 628 mmHg 85%
    13:00 -1°C° 0.1 mm 1 m/S 628 mmHg 84%
    14:00 -1°C° 0.1 mm 1 m/S 628 mmHg 84%
    15:00 -1°C° 0.1 mm 1 m/S 628 mmHg 84%
    16:00 -1°C° 0.1 mm 1 m/S 628 mmHg 84%
    17:00 -3°C° 0.1 mm 1 m/S 628 mmHg 87%
    18:00 -6°C° 0.1 mm 1 m/S 628 mmHg 90%
    19:00 -8°C° 0.1 mm 0 m/S 628 mmHg 94%
    20:00 -8°C° 0.1 mm 0 m/S 628 mmHg 94%
    21:00 -8°C° 0.1 mm 1 m/S 629 mmHg 94%
    22:00 -8°C° 0.1 mm 1 m/S 630 mmHg 94%
    23:00 -8°C° 0.1 mm 1 m/S 630 mmHg 94%

    Morgen, 20 März, Mittwoch

    Zeit Temperatur Niederschläge Wind Luftdruck Luftfeuchtigkeit
    00:00 -9°C° 0.1 mm 1 m/S 630 mmHg 94%
    01:00 -9°C° 0.1 mm 1 m/S 630 mmHg 94%
    02:00 -9°C° 0 mm 1 m/S 630 mmHg 94%
    03:00 -10°C° 0 mm 1 m/S 630 mmHg 93%
    04:00 -10°C° 0 mm 1 m/S 630 mmHg 93%
    05:00 -10°C° 0 mm 1 m/S 630 mmHg 92%
    06:00 -10°C° 0 mm 1 m/S 630 mmHg 91%
    07:00 -10°C° 0 mm 1 m/S 630 mmHg 91%
    08:00 -7°C° 0 mm 1 m/S 631 mmHg 88%
    09:00 -4°C° 0 mm 1 m/S 632 mmHg 85%
    10:00 -1°C° 0 mm 1 m/S 633 mmHg 82%
    11:00 -1°C° 0 mm 1 m/S 633 mmHg 82%
    12:00 0°C° 0 mm 1 m/S 633 mmHg 81%
    13:00 +1°C° 0 mm 1 m/S 633 mmHg 81%
    14:00 +1°C° 0 mm 1 m/S 633 mmHg 81%
    15:00 +1°C° 0 mm 1 m/S 633 mmHg 81%
    16:00 +1°C° 0 mm 1 m/S 633 mmHg 81%
    17:00 -1°C° 0 mm 1 m/S 633 mmHg 85%
    18:00 -4°C° 0 mm 0 m/S 632 mmHg 90%
    19:00 -6°C° 0 mm 0 m/S 632 mmHg 94%
    20:00 -6°C° 0 mm 0 m/S 632 mmHg 94%
    21:00 -7°C° 0 mm 1 m/S 633 mmHg 93%
    22:00 -7°C° 0 mm 1 m/S 633 mmHg 93%
    23:00 -7°C° 0 mm 1 m/S 633 mmHg 92%

    übermorgen, 21 März, Donnerstag

    Zeit Temperatur Niederschläge Wind Luftdruck Luftfeuchtigkeit
    00:00 -8°C° 0 mm 1 m/S 633 mmHg 90%
    01:00 -8°C° 0 mm 1 m/S 633 mmHg 88%
    02:00 -8°C° 0 mm 1 m/S 632 mmHg 86%
    03:00 -8°C° 0 mm 1 m/S 632 mmHg 84%
    04:00 -8°C° 0 mm 1 m/S 632 mmHg 81%
    05:00 -8°C° 0 mm 1 m/S 632 mmHg 79%
    06:00 -7°C° 0 mm 1 m/S 632 mmHg 77%
    07:00 -7°C° 0 mm 1 m/S 632 mmHg 74%
    08:00 -3°C° 0 mm 1 m/S 633 mmHg 74%
    09:00 0°C° 0 mm 1 m/S 634 mmHg 73%
    10:00 +3°C° 0 mm 1 m/S 635 mmHg 72%
    11:00 +4°C° 0 mm 1 m/S 635 mmHg 72%
    12:00 +5°C° 0 mm 1 m/S 635 mmHg 72%
    13:00 +6°C° 0 mm 1 m/S 635 mmHg 73%
    14:00 +6°C° 0 mm 1 m/S 635 mmHg 76%
    15:00 +6°C° 0 mm 1 m/S 634 mmHg 78%
    16:00 +6°C° 0 mm 1 m/S 634 mmHg 81%
    17:00 +4°C° 0 mm 1 m/S 633 mmHg 83%
    18:00 +1°C° 0 mm 1 m/S 633 mmHg 86%
    19:00 -1°C° 0 mm 1 m/S 632 mmHg 88%
    20:00 -1°C° 0 mm 1 m/S 632 mmHg 86%
    21:00 -2°C° 0 mm 1 m/S 632 mmHg 85%
    22:00 -4°C° 0 mm 2 m/S 632 mmHg 83%
    23:00 -4°C° 0 mm 2 m/S 632 mmHg 80%

    22 März, Freitag

    Zeit Temperatur Niederschläge Wind Luftdruck Luftfeuchtigkeit
    00:00 -4°C° 0 mm 2 m/S 632 mmHg 76%
    01:00 -5°C° 0 mm 2 m/S 632 mmHg 73%
    02:00 -5°C° 0 mm 2 m/S 632 mmHg 71%
    03:00 -5°C° 0 mm 2 m/S 631 mmHg 70%
    04:00 -5°C° 0 mm 2 m/S 631 mmHg 68%
    05:00 -5°C° 0 mm 2 m/S 631 mmHg 67%
    06:00 -4°C° 0 mm 2 m/S 632 mmHg 66%
    07:00 -4°C° 0 mm 2 m/S 632 mmHg 65%
    08:00 +1°C° 0 mm 1 m/S 633 mmHg 67%
    09:00 +4°C° 0 mm 1 m/S 633 mmHg 69%
    10:00 +5°C° 0 mm 0 m/S 634 mmHg 70%
    11:00 +6°C° 0 mm 0 m/S 634 mmHg 70%
    12:00 +7°C° 0 mm 0 m/S 634 mmHg 69%
    13:00 +8°C° 0 mm 0 m/S 634 mmHg 69%
    14:00 +9°C° 0 mm 1 m/S 634 mmHg 72%
    15:00 +8°C° 0 mm 1 m/S 633 mmHg 75%
    16:00 +8°C° 0 mm 1 m/S 633 mmHg 78%
    17:00 +6°C° 0 mm 1 m/S 632 mmHg 82%
    18:00 +2°C° 0 mm 0 m/S 632 mmHg 85%
    19:00 0°C° 0 mm 0 m/S 631 mmHg 89%
    20:00 +1°C° 0 mm 1 m/S 631 mmHg 88%
    21:00 0°C° 0 mm 1 m/S 632 mmHg 88%
    22:00 0°C° 0 mm 1 m/S 632 mmHg 87%
    23:00 0°C° 0 mm 1 m/S 632 mmHg 86%

    23 März, Samstag

    Zeit Temperatur Niederschläge Wind Luftdruck Luftfeuchtigkeit
    00:00 0°C° 0 mm 1 m/S 631 mmHg 84%
    01:00 0°C° 0 mm 1 m/S 631 mmHg 83%
    02:00 -1°C° 0 mm 1 m/S 631 mmHg 81%
    03:00 -1°C° 0 mm 1 m/S 631 mmHg 80%
    04:00 -1°C° 0 mm 1 m/S 631 mmHg 79%
    05:00 -1°C° 0 mm 1 m/S 631 mmHg 77%
    06:00 0°C° 0 mm 1 m/S 631 mmHg 76%
    07:00 0°C° 0 mm 1 m/S 631 mmHg 74%
    08:00 +3°C° 0 mm 1 m/S 632 mmHg 71%
    09:00 +4°C° 0 mm 0 m/S 633 mmHg 68%
    10:00 +7°C° 0 mm 0 m/S 634 mmHg 65%
    11:00 +8°C° 0 mm 0 m/S 634 mmHg 63%
    12:00 +9°C° 0 mm 0 m/S 634 mmHg 62%
    13:00 +10°C° 0 mm 0 m/S 634 mmHg 60%
    14:00 +10°C° 0 mm 0 m/S 633 mmHg 63%
    15:00 +10°C° 0 mm 0 m/S 633 mmHg 66%
    16:00 +11°C° 0 mm 1 m/S 632 mmHg 69%
    17:00 +8°C° 0 mm 1 m/S 632 mmHg 75%
    18:00 +6°C° 0 mm 1 m/S 631 mmHg 80%
    19:00 +3°C° 0 mm 1 m/S 630 mmHg 86%
    20:00 +3°C° 0 mm 1 m/S 630 mmHg 85%
    21:00 +2°C° 0 mm 1 m/S 630 mmHg 85%
    22:00 +1°C° 0 mm 2 m/S 630 mmHg 85%
    23:00 +1°C° 0 mm 2 m/S 630 mmHg 84%

    24 März, Sonntag

    Zeit Temperatur Niederschläge Wind Luftdruck Luftfeuchtigkeit
    00:00 -1°C° 0 mm 2 m/S 630 mmHg 82%
    01:00 -1°C° 0 mm 2 m/S 630 mmHg 81%
    02:00 -1°C° 0 mm 2 m/S 629 mmHg 80%
    03:00 +1°C° 0 mm 1 m/S 629 mmHg 80%
    04:00 +1°C° 0 mm 1 m/S 629 mmHg 79%
    05:00 +1°C° 0 mm 1 m/S 629 mmHg 79%
    06:00 +1°C° 0 mm 1 m/S 629 mmHg 79%
    07:00 +1°C° 0 mm 1 m/S 630 mmHg 79%
    08:00 +4°C° 0 mm 1 m/S 630 mmHg 76%
    09:00 +6°C° 0 mm 1 m/S 631 mmHg 73%
    10:00 +9°C° 0 mm 1 m/S 632 mmHg 69%
    11:00 +10°C° 0 mm 1 m/S 631 mmHg 66%
    12:00 +10°C° 0 mm 1 m/S 631 mmHg 64%
    13:00 +11°C° 0 mm 1 m/S 631 mmHg 61%
    14:00 +11°C° 0 mm 1 m/S 631 mmHg 63%
    15:00 +10°C° 0 mm 1 m/S 630 mmHg 65%
    16:00 +10°C° 0 mm 1 m/S 630 mmHg 68%
    17:00 +8°C° 0 mm 1 m/S 629 mmHg 76%
    18:00 +6°C° 0 mm 1 m/S 629 mmHg 83%
    19:00 +2°C° 0 mm 0 m/S 628 mmHg 91%
    20:00 +3°C° 0 mm 1 m/S 628 mmHg 92%
    21:00 +2°C° 0 mm 1 m/S 628 mmHg 93%
    22:00 +2°C° 0 mm 1 m/S 628 mmHg 94%
    23:00 +1°C° 0 mm 1 m/S 628 mmHg 94%
    Mehr zeigen